Regional Weather Roundup
Issued by NWS

Home | Current Version | Previous Version | Text Only | Print | Product List | Glossary On
Versions: 1 2 3 4 5 6 7 8 9 10 11 12 13 14 15 16 17 18 19 20 21 22 23 24 25 26 27 28 29 30 31 32 33 34 35 36 37 38 39 40 41 42 43 44 45 46 47 48 49 50
000
ASUS43 KLSX 230307
RWRMO

WEATHER SUMMARY FOR MISSOURI
NATIONAL WEATHER SERVICE SPRINGFIELD MO
1000 PM CDT FRI MAY 22 2015

NOTE: "FAIR" INDICATES FEW OR NO CLOUDS BELOW 12,000 FEET WITH NO
       SIGNIFICANT WEATHER AND/OR OBSTRUCTIONS TO VISIBILITY.
       CURRENT SKY AND/OR WEATHER CONDITIONS ARE NOT AVAILABLE FOR
       CHILLICOTHE AND FARMINGTON.

MOZ001>031-035>038-043-044-053-054-230400-
...NORTHERN AND WESTERN MISSOURI...

CITY           SKY/WX    TMP DP  RH WIND       PRES   REMARKS
KANSAS CTY INT CLOUDY    60  51  72 SE8       30.20S
KANSAS C DTWN  CLOUDY    63  49  60 E7        30.19S
LEE`S SUMMIT   CLOUDY    60  52  74 E7        30.21S
ST JOSEPH      CLOUDY    61  50  67 SE6       30.20S
CHILLICOTHE      N/A     64  54  69 SE3       30.23S
KIRKSVILLE     MOCLDY    58  55  90 CALM      30.24R

$$
MOZ066>068-077>081-088>096-101>105-230400-
...SOUTHWEST MISSOURI...

CITY           SKY/WX    TMP DP  RH WIND       PRES   REMARKS
SPRINGFIELD    CLOUDY    61  48  62 SE9       30.21S
JOPLIN         CLOUDY    61  50  67 E7        30.20R

$$
MOZ032>034-039>042-045>050-055>058-069>072-230400-
...CENTRAL MISSOURI...

CITY           SKY/WX    TMP DP  RH WIND       PRES   REMARKS
COLUMBIA       CLOUDY    62  54  74 E5        30.25R
JEFFERSON CITY CLOUDY    65  52  62 SE3       30.24R
ROLLA          CLOUDY    61  54  77 CALM      30.24R
SEDALIA        CLOUDY    63  54  72 E6        30.24R
WHITEMAN AFB   CLOUDY    61  54  76 E5        30.21S
WARRENSBURG    CLOUDY    61  52  72 E3        30.22R
OSAGE BEACH    CLOUDY    63  52  67 E3        30.23R

$$
MOZ051-052-059>065-230400-
...EAST CENTRAL MISSOURI...

CITY           SKY/WX    TMP DP  RH WIND       PRES   REMARKS
ST LOUIS INTL  CLOUDY    66  50  56 CALM      30.26R
SPIRIT OF STL  CLOUDY    62  58  86 CALM      30.25R
ST CHARLES     CLOUDY    63  55  75 CALM      30.24S

$$
MOZ072>076-082>087-097>100-106>115-230400-
...SOUTH CENTRAL AND SOUTHEAST MISSOURI...

CITY           SKY/WX    TMP DP  RH WIND       PRES   REMARKS
CAPE GIRARDEAU CLOUDY    62  58  86 CALM      30.27R
FARMINGTON     CLOUDY    61  52  72 S5        30.31R
POPLAR BLUFF   CLOUDY    62  58  86 CALM      30.26R
WEST PLAINS    CLOUDY    60  47  61 SE6       30.25S

$$


USA.gov is the U.S. government's official web portal to all federal, state and local government web resources and services.